Aeroporto :
LOGIN :

Iscrizione | Disclaimer

   EN    FR    IT 

 










Sommario :    VFR   VFR Marginale   IFR   IFR Intensivo   IFR Molto Intensivo
Visibilità : 
Base nubi : 
>= 8 km
>= 3000ft
5 / 8 km
1000 / 3000 ft
1500m / 5 km
500 / 1000 ft
800 / 1500m
200 / 500 ft
< 800m
< 200 ft
Simboli :   Temporali  Nebbia  Neve Forte  Precipitazioni Forti  Vento > 20 kt
SIGMETs :   Varie  Temporali  Ghiacco  Turbolenza  Onda orograficha  Ceneri Vulcaniche






- Altitudine del aeroporto : 352 ft
- Codice IATA : ARW


LRAR - Arad International

ULTIMO METAR :
  • 281230Z 36006KT 320V040 CAVOK 19/01 Q1012

METARs OBSOLETI :
  • 281200Z VRB04KT CAVOK 18/02 Q1013
  • 281130Z 32003KT 290V020 CAVOK 18/02 Q1013
  • 281100Z 27006KT CAVOK 17/02 Q1014
  • 281030Z 27006KT 230V300 CAVOK 17/01 Q1014
  • 281000Z 26008KT 210V290 CAVOK 16/00 Q1014

TAF TAF LRAR
Valido dal 28 a 12 ore il 28 a 21 ore UTC


281100Z 2812/2821 28006KT CAVOK



MetMap, La meteo Aeronautica in un colpo d'occhio ! - Copyright ORBIFLY Dicembre 2007 - Disclaimer

ORBIFLY MET'MAP TEAM :

Programmazione e sviluppo : Alexandra Zaïnal
Concezione : Baudouin d'Aumeries
Aiuto per la programmazione : Marc-Olivier Méhu
Supporto tecnico e logistico : Manuel Goepfert
Aiuto per la traduzione : Arnaldo La Scala

Contatto : metmap@orbifly.com




FONTI E CREDITI :

   NOAA